• In Hungary
  • List of Countries
  • For 7 days
  • Water Temperature
  • Satellite Maps
  • Weather Map
  • News
  • Weather Widgets
  • user-avatar
    Login

    Hourly Weather Rozyna

    Today, 19 August, Sunday

    Time Temperature Precipitation Wind Pressure Humidity
    00:00 +22°C° 0 mm 1 mps 752 mmHg 68%
    01:00 +22°C° 0 mm 1 mps 752 mmHg 70%
    02:00 +22°C° 0 mm 1 mps 752 mmHg 72%
    03:00 +21°C° 0 mm 1 mps 752 mmHg 73%
    04:00 +21°C° 0 mm 1 mps 752 mmHg 75%
    05:00 +22°C° 0 mm 1 mps 752 mmHg 72%
    06:00 +23°C° 0 mm 1 mps 752 mmHg 70%
    07:00 +24°C° 0 mm 1 mps 752 mmHg 68%
    08:00 +25°C° 0 mm 1 mps 752 mmHg 63%
    09:00 +27°C° 0 mm 1 mps 752 mmHg 58%
    10:00 +29°C° 0 mm 1 mps 752 mmHg 53%
    11:00 +29°C° 0 mm 1 mps 752 mmHg 49%
    12:00 +30°C° 0 mm 1 mps 752 mmHg 46%
    13:00 +31°C° 0 mm 1 mps 752 mmHg 42%
    14:00 +31°C° 0 mm 1 mps 751 mmHg 42%
    15:00 +31°C° 0 mm 1 mps 751 mmHg 42%
    16:00 +31°C° 0 mm 1 mps 751 mmHg 42%
    17:00 +29°C° 0 mm 1 mps 750 mmHg 46%
    18:00 +28°C° 0 mm 1 mps 750 mmHg 50%
    19:00 +27°C° 0 mm 1 mps 750 mmHg 53%
    20:00 +26°C° 0 mm 1 mps 750 mmHg 55%
    21:00 +25°C° 0 mm 1 mps 750 mmHg 56%
    22:00 +24°C° 0 mm 2 mps 750 mmHg 58%
    23:00 +24°C° 0 mm 2 mps 750 mmHg 60%

    Tomorrow, 20 August, Monday

    Time Temperature Precipitation Wind Pressure Humidity
    00:00 +23°C° 0 mm 2 mps 750 mmHg 63%
    01:00 +23°C° 0 mm 2 mps 750 mmHg 65%
    02:00 +23°C° 0 mm 2 mps 749 mmHg 67%
    03:00 +23°C° 0 mm 2 mps 749 mmHg 69%
    04:00 +21°C° 0 mm 2 mps 749 mmHg 70%
    05:00 +23°C° 0 mm 2 mps 749 mmHg 68%
    06:00 +24°C° 0 mm 2 mps 749 mmHg 66%
    07:00 +25°C° 0 mm 2 mps 749 mmHg 64%
    08:00 +26°C° 0 mm 2 mps 749 mmHg 59%
    09:00 +28°C° 0 mm 3 mps 749 mmHg 54%
    10:00 +30°C° 0 mm 3 mps 749 mmHg 50%
    11:00 +30°C° 0 mm 3 mps 749 mmHg 47%
    12:00 +31°C° 0 mm 3 mps 749 mmHg 44%
    13:00 +33°C° 0 mm 4 mps 748 mmHg 42%
    14:00 +32°C° 0 mm 4 mps 748 mmHg 42%
    15:00 +31°C° 0 mm 3 mps 748 mmHg 42%
    16:00 +31°C° 0 mm 3 mps 748 mmHg 42%
    17:00 +29°C° 0 mm 3 mps 748 mmHg 47%
    18:00 +28°C° 0 mm 3 mps 748 mmHg 52%
    19:00 +26°C° 0 mm 3 mps 748 mmHg 57%
    20:00 +25°C° 0 mm 3 mps 749 mmHg 60%
    21:00 +24°C° 0 mm 3 mps 749 mmHg 63%
    22:00 +22°C° 0 mm 3 mps 750 mmHg 66%
    23:00 +22°C° 0 mm 3 mps 750 mmHg 70%

    Day after tomorrow, 21 August, Tuesday

    Time Temperature Precipitation Wind Pressure Humidity
    00:00 +21°C° 0 mm 3 mps 750 mmHg 74%
    01:00 +20°C° 0 mm 3 mps 750 mmHg 78%
    02:00 +19°C° 0 mm 2 mps 751 mmHg 80%
    03:00 +19°C° 0 mm 2 mps 751 mmHg 83%
    04:00 +18°C° 0 mm 2 mps 751 mmHg 85%
    05:00 +18°C° 0 mm 2 mps 752 mmHg 79%
    06:00 +19°C° 0 mm 2 mps 752 mmHg 73%
    07:00 +19°C° 0 mm 3 mps 752 mmHg 67%
    08:00 +20°C° 0 mm 3 mps 753 mmHg 60%
    09:00 +21°C° 0 mm 3 mps 753 mmHg 53%
    10:00 +24°C° 0 mm 3 mps 753 mmHg 47%
    11:00 +24°C° 0 mm 3 mps 753 mmHg 43%
    12:00 +25°C° 0 mm 3 mps 752 mmHg 40%
    13:00 +26°C° 0 mm 3 mps 752 mmHg 36%
    14:00 +26°C° 0 mm 3 mps 752 mmHg 36%
    15:00 +27°C° 0 mm 3 mps 752 mmHg 36%
    16:00 +27°C° 0 mm 2 mps 752 mmHg 36%
    17:00 +25°C° 0 mm 2 mps 752 mmHg 41%
    18:00 +24°C° 0 mm 2 mps 752 mmHg 46%
    19:00 +22°C° 0 mm 1 mps 752 mmHg 50%
    20:00 +21°C° 0 mm 1 mps 752 mmHg 52%
    21:00 +20°C° 0 mm 1 mps 753 mmHg 54%
    22:00 +20°C° 0 mm 1 mps 753 mmHg 55%
    23:00 +19°C° 0 mm 1 mps 753 mmHg 56%

    22 August, Wednesday

    Time Temperature Precipitation Wind Pressure Humidity
    00:00 +19°C° 0 mm 1 mps 753 mmHg 57%
    01:00 +19°C° 0 mm 1 mps 753 mmHg 59%
    02:00 +18°C° 0 mm 1 mps 753 mmHg 60%
    03:00 +18°C° 0 mm 1 mps 753 mmHg 61%
    04:00 +16°C° 0 mm 1 mps 752 mmHg 62%
    05:00 +17°C° 0 mm 2 mps 752 mmHg 60%
    06:00 +19°C° 0 mm 2 mps 753 mmHg 59%
    07:00 +20°C° 0 mm 2 mps 753 mmHg 57%
    08:00 +21°C° 0 mm 2 mps 753 mmHg 52%
    09:00 +24°C° 0 mm 3 mps 753 mmHg 47%
    10:00 +26°C° 0 mm 3 mps 752 mmHg 41%
    11:00 +27°C° 0 mm 3 mps 752 mmHg 39%
    12:00 +28°C° 0 mm 3 mps 752 mmHg 37%
    13:00 +29°C° 0 mm 3 mps 751 mmHg 35%
    14:00 +29°C° 0 mm 3 mps 751 mmHg 35%
    15:00 +29°C° 0 mm 2 mps 751 mmHg 35%
    16:00 +29°C° 0 mm 2 mps 750 mmHg 35%
    17:00 +28°C° 0 mm 2 mps 750 mmHg 40%
    18:00 +26°C° 0 mm 2 mps 750 mmHg 45%
    19:00 +24°C° 0 mm 2 mps 750 mmHg 49%
    20:00 +23°C° 0 mm 2 mps 750 mmHg 52%
    21:00 +21°C° 0 mm 2 mps 750 mmHg 55%
    22:00 +21°C° 0 mm 2 mps 750 mmHg 58%
    23:00 +20°C° 0 mm 2 mps 750 mmHg 61%

    23 August, Thursday

    Time Temperature Precipitation Wind Pressure Humidity
    00:00 +20°C° 0 mm 2 mps 750 mmHg 64%
    01:00 +19°C° 0 mm 2 mps 750 mmHg 67%
    02:00 +19°C° 0 mm 2 mps 750 mmHg 69%
    03:00 +19°C° 0 mm 2 mps 749 mmHg 71%
    04:00 +18°C° 0 mm 2 mps 749 mmHg 72%
    05:00 +19°C° 0 mm 2 mps 749 mmHg 70%
    06:00 +20°C° 0 mm 2 mps 749 mmHg 67%
    07:00 +23°C° 0 mm 2 mps 749 mmHg 65%
    08:00 +25°C° 0 mm 2 mps 749 mmHg 58%
    09:00 +27°C° 0 mm 2 mps 749 mmHg 51%
    10:00 +29°C° 0 mm 2 mps 749 mmHg 43%
    11:00 +30°C° 0 mm 1 mps 748 mmHg 41%
    12:00 +31°C° 0 mm 1 mps 748 mmHg 38%
    13:00 +32°C° 0 mm 1 mps 747 mmHg 35%
    14:00 +32°C° 0 mm 1 mps 747 mmHg 35%
    15:00 +32°C° 0 mm 1 mps 747 mmHg 35%
    16:00 +32°C° 0 mm 1 mps 746 mmHg 36%
    17:00 +30°C° 0 mm 1 mps 746 mmHg 40%
    18:00 +29°C° 0 mm 1 mps 746 mmHg 44%
    19:00 +27°C° 0 mm 1 mps 746 mmHg 49%
    20:00 +26°C° 0 mm 2 mps 746 mmHg 51%
    21:00 +26°C° 0 mm 2 mps 745 mmHg 53%
    22:00 +25°C° 0 mm 2 mps 745 mmHg 55%
    23:00 +24°C° 0.1 mm 2 mps 745 mmHg 58%

    24 August, Friday

    Time Temperature Precipitation Wind Pressure Humidity
    00:00 +24°C° 0.1 mm 2 mps 745 mmHg 60%
    01:00 +23°C° 0.1 mm 2 mps 744 mmHg 63%
    02:00 +23°C° 0.2 mm 2 mps 744 mmHg 65%
    03:00 +23°C° 0.2 mm 2 mps 744 mmHg 67%
    04:00 +23°C° 0.2 mm 2 mps 743 mmHg 69%
    05:00 +22°C° 0 mm 3 mps 743 mmHg 67%
    06:00 +24°C° 0 mm 3 mps 743 mmHg 65%
    07:00 +25°C° 0 mm 3 mps 743 mmHg 63%
    08:00 +27°C° 0 mm 4 mps 743 mmHg 58%
    09:00 +28°C° 0 mm 4 mps 742 mmHg 52%
    10:00 +30°C° 0 mm 4 mps 742 mmHg 47%
    11:00 +32°C° 0 mm 5 mps 742 mmHg 45%
    12:00 +32°C° 0 mm 5 mps 742 mmHg 43%
    13:00 +33°C° 0 mm 5 mps 741 mmHg 41%
    14:00 +32°C° 0 mm 5 mps 741 mmHg 45%
    15:00 +30°C° 0 mm 4 mps 741 mmHg 49%
    16:00 +28°C° 0 mm 4 mps 741 mmHg 54%
    17:00 +27°C° 0.7 mm 4 mps 741 mmHg 60%
    18:00 +25°C° 0.7 mm 4 mps 741 mmHg 67%
    19:00 +23°C° 0.7 mm 4 mps 742 mmHg 74%
    20:00 +22°C° 0.4 mm 4 mps 742 mmHg 78%
    21:00 +20°C° 0.4 mm 5 mps 743 mmHg 83%
    22:00 +19°C° 0.4 mm 5 mps 743 mmHg 88%
    23:00 +17°C° 0.1 mm 5 mps 744 mmHg 86%
    Show more